Location: Antin
(43.3330°N, 0.2804°E)
Time: 04:57:31
(UTC+00:00)

Cosmos 1605 Rocket - Pass Details

Date: 16 October 2021
Orbit: 945 x 1005 km, 82.9° (Epoch: 02 December)

Event Time Altitude Azimuth Distance (km) Brightness Sun altitude
Rises 18:48:02 0° 167° (SSE) 3,636 6.8 -17.8°
Reaches altitude 10° 18:50:36 10° 161° (SSE) 2,703 6.1 -18.3°
Maximum altitude 18:56:28 47° 90° (E) 1,281 4.2 -19.4°
Drops below altitude 10° 19:02:28 10° 19° (NNE) 2,760 6.2 -20.5°
Sets 19:05:06 0° 14° (NNE) 3,721 7.0 -20.9°
